| time (UTC) | temp F | wind direction | speed knots | gust knots | rain 1hr in | rain 24hr in | rain mn in | humidity % | barometer mb |
| 20260507060954 | 54 | 223 | 5.2 | 12.2 | 0.00 | 0.00 | 0.00 | 87 | 969.0 |
| 20260507055955 | 54 | 211 | 5.2 | 12.2 | 0.00 | 0.00 | 0.00 | 87 | 968.8 |
| 20260507054955 | 54 | 215 | 5.2 | 11.3 | 0.00 | 0.00 | 0.00 | 87 | 968.8 |
| 20260507053954 | 54 | 221 | 3.5 | 7.8 | 0.00 | 0.00 | 0.00 | 88 | 968.2 |
| 20260507052955 | 54 | 221 | 3.5 | 7.8 | 0.00 | 0.00 | 0.00 | 88 | 968.2 |
| 20260507051955 | 54 | 221 | 3.5 | 7.8 | 0.00 | 0.00 | 0.00 | 88 | 968.2 |
| 20260507050954 | 54 | 221 | 3.5 | 7.8 | 0.00 | 0.00 | 0.00 | 88 | 968.2 |
| 20260507045955 | 54 | 221 | 3.5 | 7.8 | 0.00 | 0.00 | 0.00 | 88 | 968.2 |
| 20260507044955 | 54 | 215 | 3.5 | 7.8 | 0.00 | 0.00 | 0.00 | 88 | 968.1 |
| 20260507043954 | 54 | 222 | 3.5 | 7.0 | 0.00 | 0.00 | 0.00 | 88 | 968.0 |
| 20260507042955 | 54 | 222 | 3.5 | 7.8 | 0.00 | 0.00 | 0.00 | 88 | 967.9 |
| 20260507041954 | 54 | 219 | 2.6 | 7.0 | 0.00 | 0.00 | 0.00 | 88 | 967.8 |
| 20260507040954 | 54 | 225 | 2.6 | 7.0 | 0.00 | 0.00 | 0.00 | 88 | 967.8 |
| 20260507034955 | 54 | 218 | 1.7 | 3.5 | 0.00 | 0.00 | 0.00 | 88 | 967.7 |
| 20260507033954 | 54 | 221 | 1.7 | 5.2 | 0.00 | 0.00 | 0.00 | 88 | 967.6 |
| 20260507032954 | 54 | 227 | 1.7 | 4.3 | 0.00 | 0.00 | 0.00 | 88 | 967.6 |
| 20260507031954 | 54 | 225 | 1.7 | 6.1 | 0.00 | 0.00 | 0.00 | 88 | 967.6 |
| 20260507030954 | 54 | 230 | 1.7 | 4.3 | 0.00 | 0.00 | 0.00 | 88 | 967.6 |
| 20260507025954 | 54 | 270 | 1.7 | 4.3 | 0.00 | 0.00 | 0.00 | 88 | 967.4 |
| 20260507024954 | 54 | 251 | 1.7 | 5.2 | 0.00 | 0.00 | 0.00 | 88 | 967.4 |
| 20260507023954 | 54 | 225 | 2.6 | 6.1 | 0.00 | 0.00 | 0.00 | 88 | 967.3 |
| 20260507022955 | 54 | 225 | 2.6 | 7.0 | 0.00 | 0.00 | 0.00 | 88 | 967.3 |
| 20260507021954 | 54 | 225 | 2.6 | 7.0 | 0.00 | 0.00 | 0.00 | 88 | 967.3 |
| 20260507020955 | 54 | 214 | 3.5 | 5.2 | 0.00 | 0.00 | 0.00 | 87 | 967.1 |
| 20260507015954 | 54 | 215 | 3.5 | 7.8 | 0.00 | 0.00 | 0.00 | 87 | 966.9 |
| 20260507014954 | 54 | 215 | 3.5 | 7.8 | 0.00 | 0.00 | 0.00 | 87 | 966.9 |
| 20260507013954 | 54 | 210 | 5.2 | 7.8 | 0.00 | 0.00 | 0.00 | 87 | 966.9 |
| 20260507012955 | 54 | 213 | 4.3 | 6.1 | 0.00 | 0.00 | 0.00 | 86 | 966.7 |
| 20260507011954 | 54 | 213 | 4.3 | 6.1 | 0.00 | 0.00 | 0.00 | 86 | 966.7 |
| 20260507010954 | 55 | 218 | 1.7 | 4.3 | 0.00 | 0.00 | 0.00 | 85 | 966.6 |
| 20260507005954 | 55 | 270 | 1.7 | 2.6 | 0.00 | 0.00 | 0.00 | 85 | 966.6 |
| 20260507004954 | 55 | 270 | 1.7 | 2.6 | 0.00 | 0.00 | 0.00 | 85 | 966.6 |
| 20260507003955 | 55 | 225 | 1.7 | 3.5 | 0.00 | 0.00 | 0.00 | 85 | 966.6 |
| 20260507002954 | 55 | 228 | 0.9 | 1.7 | 0.00 | 0.00 | 0.00 | 85 | 966.6 |
| 20260507001954 | 55 | 228 | 0.9 | 1.7 | 0.00 | 0.00 | 0.00 | 85 | 966.6 |
| 20260507000954 | 55 | 232 | 1.7 | 4.3 | 0.00 | 0.00 | 0.00 | 85 | 966.5 |
| 20260506235954 | 55 | 220 | 1.7 | 3.5 | 0.00 | 0.00 | 0.00 | 85 | 966.6 |
| 20260506234954 | 55 | 245 | 1.7 | 6.1 | 0.00 | 0.00 | 0.00 | 85 | 966.6 |
| 20260506233954 | 55 | 245 | 1.7 | 6.1 | 0.00 | 0.00 | 0.00 | 85 | 966.6 |
| 20260506232954 | 56 | 218 | 1.7 | 5.2 | 0.00 | 0.00 | 0.00 | 85 | 966.4 |
| 20260506231954 | 56 | 225 | 1.7 | 6.1 | 0.00 | 0.00 | 0.00 | 85 | 966.2 |
| 20260506230954 | 56 | 225 | 1.7 | 6.1 | 0.00 | 0.00 | 0.00 | 85 | 966.2 |
| 20260506225954 | 56 | 218 | 1.7 | 6.1 | 0.00 | 0.00 | 0.00 | 85 | 966.0 |
| 20260506224954 | 57 | 209 | 1.7 | 5.2 | 0.00 | 0.00 | 0.00 | 84 | 966.0 |
| 20260506223954 | 57 | 209 | 1.7 | 5.2 | 0.00 | 0.00 | 0.00 | 84 | 966.0 |
| 20260506222954 | 57 | 213 | 1.7 | 2.6 | 0.00 | 0.00 | 0.00 | 84 | 965.8 |
| 20260506221955 | 57 | 239 | 1.7 | 3.5 | 0.00 | 0.00 | 0.00 | 85 | 965.7 |
| 20260506220954 | 58 | 270 | 1.7 | 4.3 | 0.00 | 0.00 | 0.62 | 86 | 965.8 |
| 20260506215954 | 58 | 270 | 1.7 | 4.3 | 0.00 | 0.00 | 0.62 | 86 | 965.8 |
| 20260506214954 | 57 | 270 | 1.7 | 2.6 | 0.00 | 0.00 | 0.62 | 86 | 965.9 |
| 20260506213954 | 57 | 243 | 1.7 | 3.5 | 0.00 | 0.00 | 0.62 | 86 | 965.9 |
| 20260506212954 | 57 | 243 | 1.7 | 3.5 | 0.00 | 0.00 | 0.62 | 86 | 965.9 |
| 20260506211954 | 57 | 270 | 2.6 | 5.2 | 0.00 | 0.00 | 0.62 | 86 | 966.0 |
| 20260506210954 | 57 | 180 | 1.7 | 3.5 | 0.02 | 0.00 | 0.62 | 86 | 965.2 |
| 20260506205954 | 57 | 180 | 1.7 | 3.5 | 0.17 | 0.00 | 0.62 | 86 | 965.2 |
| 20260506204954 | 58 | 327 | 0.9 | 2.6 | 0.42 | 0.00 | 0.62 | 86 | 965.1 |
| 20260506203954 | 58 | 335 | 1.7 | 3.5 | 0.56 | 0.00 | 0.62 | 85 | 965.0 |
| 20260506202954 | 58 | 335 | 1.7 | 3.5 | 0.61 | 0.00 | 0.62 | 85 | 965.0 |
| 20260506201954 | 62 | 266 | 4.3 | 9.6 | 0.01 | 0.00 | 0.01 | 74 | 965.1 |
| 20260506200954 | 62 | 266 | 4.3 | 9.6 | 0.01 | 0.00 | 0.01 | 74 | 965.1 |
| 20260506195955 | 62 | 266 | 4.3 | 9.6 | 0.01 | 0.00 | 0.01 | 74 | 965.1 |
| 20260506194954 | 62 | 266 | 4.3 | 9.6 | 0.01 | 0.00 | 0.01 | 74 | 965.1 |
| 20260506193954 | 62 | 266 | 4.3 | 9.6 | 0.01 | 0.00 | 0.01 | 74 | 965.1 |
| 20260506192954 | 62 | 266 | 4.3 | 9.6 | 0.01 | 0.00 | 0.01 | 74 | 965.1 |
| 20260506191954 | 63 | 299 | 1.7 | 4.3 | 0.00 | 0.00 | 0.00 | 70 | 963.9 |
| 20260506190954 | 63 | 90 | 0.9 | 3.5 | 0.00 | 0.00 | 0.00 | 69 | 964.0 |
| 20260506185954 | 63 | 90 | 0.9 | 3.5 | 0.00 | 0.00 | 0.00 | 69 | 964.0 |
| 20260506184954 | 64 | 333 | 0.9 | 2.6 | 0.00 | 0.00 | 0.00 | 68 | 963.4 |
| 20260506183954 | 64 | 327 | 0.9 | 1.7 | 0.00 | 0.00 | 0.00 | 68 | 963.2 |
| 20260506182954 | 64 | 327 | 0.9 | 1.7 | 0.00 | 0.00 | 0.00 | 68 | 963.2 |
| 20260506181954 | 64 | 315 | 0.9 | 1.7 | 0.00 | 0.00 | 0.00 | 68 | 963.1 |
| 20260506180954 | 65 | 326 | 1.7 | 4.3 | 0.00 | 0.00 | 0.00 | 69 | 962.8 |
| 20260506175954 | 65 | 326 | 1.7 | 4.3 | 0.00 | 0.00 | 0.00 | 69 | 962.8 |
| 20260506174954 | 65 | 319 | 1.7 | 5.2 | 0.00 | 0.00 | 0.00 | 68 | 962.7 |
| 20260506173954 | 67 | 313 | 3.5 | 7.8 | 0.00 | 0.00 | 0.00 | 69 | 962.5 |
| 20260506172954 | 67 | 313 | 3.5 | 7.8 | 0.00 | 0.00 | 0.00 | 69 | 962.5 |
| 20260506171954 | 67 | 319 | 3.5 | 9.6 | 0.00 | 0.00 | 0.00 | 69 | 962.5 |
| 20260506170954 | 67 | 308 | 3.5 | 7.8 | 0.00 | 0.00 | 0.00 | 68 | 962.5 |
| 20260506165954 | 68 | 305 | 2.6 | 7.8 | 0.00 | 0.00 | 0.00 | 68 | 962.5 |
| 20260506164954 | 68 | 305 | 2.6 | 7.8 | 0.00 | 0.00 | 0.00 | 68 | 962.5 |
| 20260506163954 | 68 | 307 | 2.6 | 7.0 | 0.00 | 0.00 | 0.00 | 67 | 962.4 |
| 20260506162954 | 68 | 315 | 1.7 | 5.2 | 0.00 | 0.00 | 0.00 | 65 | 962.5 |
| 20260506161954 | 69 | 336 | 1.7 | 4.3 | 0.00 | 0.00 | 0.00 | 64 | 962.5 |
| 20260506160954 | 69 | 336 | 1.7 | 4.3 | 0.00 | 0.00 | 0.00 | 64 | 962.5 |
| 20260506155954 | 69 | 327 | 1.7 | 6.1 | 0.00 | 0.00 | 0.00 | 64 | 962.6 |
| 20260506154954 | 69 | 123 | 0.9 | 3.5 | 0.00 | 0.00 | 0.00 | 63 | 962.6 |
| 20260506153954 | 70 | 239 | 1.7 | 2.6 | 0.00 | 0.00 | 0.00 | 62 | 962.7 |
| 20260506152954 | 70 | 98 | 1.7 | 4.3 | 0.00 | 0.00 | 0.00 | 63 | 962.8 |
| 20260506151954 | 70 | 104 | 2.6 | 7.8 | 0.00 | 0.00 | 0.00 | 63 | 962.9 |
| 20260506150954 | 70 | 103 | 5.2 | 11.3 | 0.00 | 0.00 | 0.00 | 63 | 963.2 |
| 20260506145954 | 70 | 103 | 5.2 | 11.3 | 0.00 | 0.00 | 0.00 | 63 | 963.2 |
| 20260506144954 | 70 | 114 | 4.3 | 7.8 | 0.00 | 0.00 | 0.00 | 62 | 963.2 |
| 20260506143954 | 71 | 330 | 1.7 | 5.2 | 0.00 | 0.00 | 0.00 | 59 | 963.3 |
| 20260506142954 | 71 | 330 | 1.7 | 5.2 | 0.00 | 0.00 | 0.00 | 59 | 963.3 |
| 20260506141954 | 71 | 353 | 1.7 | 4.3 | 0.00 | 0.00 | 0.00 | 59 | 963.4 |
| 20260506140954 | 71 | 323 | 1.7 | 6.1 | 0.00 | 0.00 | 0.00 | 59 | 963.5 |
| 20260506135954 | 71 | 323 | 1.7 | 6.1 | 0.00 | 0.00 | 0.00 | 59 | 963.5 |
| 20260506134954 | 72 | 59 | 0.9 | 2.6 | 0.00 | 0.00 | 0.00 | 59 | 963.7 |
| 20260506133954 | 72 | 90 | 2.6 | 9.6 | 0.00 | 0.00 | 0.00 | 60 | 963.8 |
| 20260506132954 | 72 | 81 | 1.7 | 5.2 | 0.00 | 0.00 | 0.00 | 61 | 963.7 |
| 20260506131954 | 71 | 59 | 2.6 | 7.8 | 0.00 | 0.00 | 0.00 | 61 | 963.7 |
| 20260506130954 | 71 | 327 | 1.7 | 4.3 | 0.00 | 0.00 | 0.00 | 61 | 963.7 |
| 20260506125954 | 71 | 194 | 0.9 | 3.5 | 0.00 | 0.00 | 0.00 | 61 | 963.9 |
| 20260506124954 | 70 | 278 | 2.6 | 7.0 | 0.00 | 0.00 | 0.00 | 60 | 963.9 |
| 20260506123954 | 70 | 341 | 1.7 | 4.3 | 0.00 | 0.00 | 0.00 | 62 | 964.0 |
| 20260506122954 | 69 | 90 | 0.9 | 3.5 | 0.00 | 0.00 | 0.00 | 61 | 964.2 |
| 20260506121954 | 69 | 254 | 1.7 | 4.3 | 0.00 | 0.00 | 0.00 | 61 | 964.5 |
| 20260506120954 | 69 | 180 | 1.7 | 4.3 | 0.00 | 0.00 | 0.00 | 62 | 964.6 |
| 20260506115954 | 69 | 175 | 1.7 | 5.2 | 0.00 | 0.00 | 0.00 | 63 | 964.7 |
| 20260506114954 | 69 | 227 | 1.7 | 5.2 | 0.00 | 0.00 | 0.00 | 63 | 964.7 |
| 20260506113954 | 69 | 228 | 3.5 | 9.6 | 0.00 | 0.00 | 0.00 | 63 | 964.7 |
| 20260506112954 | 69 | 283 | 3.5 | 13.0 | 0.00 | 0.00 | 0.00 | 63 | 964.8 |
| 20260506111954 | 69 | 244 | 1.7 | 9.6 | 0.00 | 0.00 | 0.00 | 65 | 964.9 |
| 20260506110954 | 68 | 265 | 3.5 | 7.0 | 0.00 | 0.00 | 0.00 | 66 | 964.9 |
| 20260506105954 | 67 | 290 | 2.6 | 6.1 | 0.00 | 0.00 | 0.00 | 67 | 965.0 |
| 20260506104954 | 67 | 238 | 1.7 | 6.1 | 0.00 | 0.00 | 0.00 | 69 | 965.1 |
| 20260506103954 | 66 | 231 | 2.6 | 6.1 | 0.00 | 0.00 | 0.00 | 70 | 965.2 |
| 20260506102954 | 66 | 259 | 1.7 | 5.2 | 0.00 | 0.00 | 0.00 | 69 | 965.3 |
| 20260506101954 | 65 | 250 | 2.6 | 7.0 | 0.00 | 0.00 | 0.00 | 71 | 965.5 |
| 20260506100954 | 64 | 223 | 1.7 | 5.2 | 0.00 | 0.00 | 0.00 | 73 | 965.7 |
| 20260506095954 | 64 | 223 | 1.7 | 5.2 | 0.00 | 0.00 | 0.00 | 73 | 965.7 |
| 20260506094954 | 64 | 222 | 3.5 | 7.8 | 0.00 | 0.00 | 0.00 | 74 | 965.7 |
| 20260506093954 | 64 | 244 | 1.7 | 6.1 | 0.00 | 0.00 | 0.00 | 77 | 965.7 |
| 20260506092954 | 64 | 244 | 1.7 | 6.1 | 0.00 | 0.00 | 0.00 | 77 | 965.7 |
| 20260506091954 | 63 | 209 | 2.6 | 5.2 | 0.00 | 0.00 | 0.00 | 77 | 965.7 |
| 20260506090954 | 62 | 278 | 2.6 | 7.0 | 0.00 | 0.00 | 0.00 | 78 | 965.8 |
| 20260506085954 | 62 | 278 | 2.6 | 7.0 | 0.00 | 0.00 | 0.00 | 78 | 965.8 |
| 20260506084954 | 62 | 291 | 1.7 | 5.2 | 0.00 | 0.00 | 0.00 | 79 | 965.6 |
| 20260506083954 | 61 | 270 | 2.6 | 6.1 | 0.00 | 0.00 | 0.00 | 80 | 965.5 |
| 20260506082954 | 61 | 286 | 2.6 | 6.1 | 0.00 | 0.00 | 0.00 | 81 | 965.6 |
| 20260506081954 | 60 | 270 | 1.7 | 5.2 | 0.00 | 0.00 | 0.00 | 82 | 965.6 |
| 20260506080954 | 60 | 285 | 1.7 | 5.2 | 0.00 | 0.00 | 0.00 | 83 | 965.4 |
| 20260506072954 | 59 | 249 | 2.6 | 7.8 | 0.00 | 0.00 | 0.00 | 86 | 965.5 |
| 20260506071954 | 58 | 217 | 3.5 | 7.8 | 0.00 | 0.00 | 0.00 | 87 | 965.5 |
| 20260506070954 | 58 | 212 | 4.3 | 9.6 | 0.00 | 0.00 | 0.00 | 88 | 965.6 |
| 20260506061954 | 55 | 213 | 2.6 | 5.2 | 0.00 | 0.00 | 0.00 | 88 | 965.5 |